Location: Unspecified
(0.0000°N, 0.0000°E)
Time: 18:38:49
(UTC+00:00)

Envisat - Pass Details

Date: 12 February 2018
Orbit: 764 x 766 km, 98.2° (Epoch: 22 February)

Event Time Altitude Azimuth Distance (km) Brightness Sun altitude
Rises 19:14:21 0° 147° (SSE) 3,230 6.0 -14.6°
Reaches altitude 10° 19:16:59 10° 134° (SE) 2,302 5.2 -15.2°
Maximum altitude 19:21:12 27° 78° (ENE) 1,450 3.8 -16.3°
Enters shadow 19:21:29 26° 72° (ENE) 1,455 3.8 -16.3°
Exits shadow 19:27:25 - 11° (NNE) 3,002 5.8 -17.8°
Sets 19:28:00 0° 9° (N) 3,215 6.0 -17.9°
